Time,TemperatureF,DewpointF,PressureIn,WindDirection,WindDirectionDegrees,WindSpeedMPH,WindSpeedGustMPH,Humidity,HourlyPrecipIn,Conditions,Clouds,dailyrainin,SoftwareType,DateUTC
2013-02-02 00:05:00,17.3,8.6,30.27,West,273,2.0,6.0,68,0.00,,,0.01,VWS V14.01,2013-02-02 05:05:00,
2013-02-02 00:16:00,17.8,8.4,30.27,WSW,243,2.0,5.0,66,0.00,,,0.00,VWS V14.01,2013-02-02 05:16:00,
2013-02-02 00:31:00,18.0,8.9,30.27,WSW,247,3.0,8.0,67,0.00,,,0.00,VWS V14.01,2013-02-02 05:31:00,
2013-02-02 00:46:00,18.1,9.3,30.27,SW,226,3.0,6.0,68,0.00,,,0.00,VWS V14.01,2013-02-02 05:46:00,
2013-02-02 01:01:00,18.0,9.2,30.26,WSW,242,2.0,5.0,68,0.00,,,0.00,VWS V14.01,2013-02-02 06:01:00,
2013-02-02 01:16:00,18.0,9.2,30.26,WNW,293,4.0,7.0,68,0.00,,,0.00,VWS V14.01,2013-02-02 06:16:00,
2013-02-02 01:31:00,18.3,9.5,30.27,WSW,248,2.0,7.0,68,0.00,,,0.00,VWS V14.01,2013-02-02 06:31:00,
2013-02-02 01:46:00,18.2,11.3,30.27,SSW,211,3.0,6.0,74,0.00,,,0.00,VWS V14.01,2013-02-02 06:46:00,
2013-02-02 02:01:00,17.7,12.6,30.27,WSW,253,2.0,9.0,80,0.00,,,0.00,VWS V14.01,2013-02-02 07:01:00,
2013-02-02 02:16:00,17.6,13.3,30.27,WSW,246,1.0,6.0,83,0.00,,,0.00,VWS V14.01,2013-02-02 07:16:00,
2013-02-02 02:31:00,17.4,13.9,30.27,SSW,193,0.0,5.0,86,0.00,,,0.00,VWS V14.01,2013-02-02 07:31:00,
2013-02-02 02:46:00,17.3,14.1,30.26,SW,217,5.0,5.0,87,0.00,,,0.00,VWS V14.01,2013-02-02 07:46:00,
2013-02-02 03:01:00,16.7,13.5,30.26,SSW,196,3.0,6.0,87,0.00,,,0.00,VWS V14.01,2013-02-02 08:01:00,
2013-02-02 03:16:00,16.4,12.4,30.26,SW,223,5.0,7.0,84,0.00,,,0.00,VWS V14.01,2013-02-02 08:16:00,
2013-02-02 03:31:00,16.4,11.9,30.25,SW,233,3.0,7.0,82,0.00,,,0.00,VWS V14.01,2013-02-02 08:31:00,
2013-02-02 03:46:00,16.4,11.6,30.25,West,273,2.0,9.0,81,0.00,,,0.00,VWS V14.01,2013-02-02 08:46:00,
2013-02-02 04:01:00,16.3,11.8,30.24,SSW,197,5.0,8.0,82,0.00,,,0.00,VWS V14.01,2013-02-02 09:01:00,
2013-02-02 04:16:00,16.0,11.2,30.24,South,186,4.0,9.0,81,0.00,,,0.00,VWS V14.01,2013-02-02 09:16:00,
2013-02-02 04:31:00,15.9,10.8,30.25,WSW,244,2.0,8.0,80,0.00,,,0.00,VWS V14.01,2013-02-02 09:31:00,
2013-02-02 04:46:00,16.0,10.4,30.24,SSW,203,4.0,8.0,78,0.00,,,0.00,VWS V14.01,2013-02-02 09:46:00,
2013-02-02 05:01:00,16.1,9.9,30.24,SW,227,3.0,7.0,76,0.00,,,0.00,VWS V14.01,2013-02-02 10:01:00,
2013-02-02 05:16:00,16.1,9.6,30.24,SW,217,3.0,14.0,75,0.00,,,0.00,VWS V14.01,2013-02-02 10:16:00,
2013-02-02 05:31:00,16.1,9.9,30.24,West,278,2.0,8.0,76,0.00,,,0.00,VWS V14.01,2013-02-02 10:31:00,
2013-02-02 05:46:00,15.8,10.2,30.23,South,185,5.0,10.0,78,0.00,,,0.00,VWS V14.01,2013-02-02 10:46:00,
2013-02-02 06:01:00,15.5,10.4,30.23,SW,221,3.0,10.0,80,0.00,,,0.00,VWS V14.01,2013-02-02 11:01:00,
2013-02-02 06:16:00,15.4,10.6,30.22,SSW,213,5.0,10.0,81,0.00,,,0.00,VWS V14.01,2013-02-02 11:16:00,
2013-02-02 06:31:00,15.5,10.4,30.22,SW,234,2.0,13.0,80,0.00,,,0.00,VWS V14.01,2013-02-02 11:31:00,
2013-02-02 06:46:00,15.5,10.2,30.22,SSW,197,4.0,8.0,79,0.00,,,0.00,VWS V14.01,2013-02-02 11:46:00,
2013-02-02 07:01:00,15.5,10.2,30.22,SW,221,4.0,9.0,79,0.00,,,0.00,VWS V14.01,2013-02-02 12:01:00,
2013-02-02 07:16:00,15.3,9.7,30.22,SW,214,3.0,8.0,78,0.00,,,0.00,VWS V14.01,2013-02-02 12:16:00,
2013-02-02 07:31:00,15.2,9.3,30.23,SW,219,2.0,9.0,77,0.00,,,0.00,VWS V14.01,2013-02-02 12:31:00,
2013-02-02 07:46:00,15.3,8.5,30.22,WSW,250,3.0,10.0,74,0.00,,,0.00,VWS V14.01,2013-02-02 12:46:00,
2013-02-02 08:01:00,15.3,8.2,30.22,SW,214,4.0,9.0,73,0.00,,,0.00,VWS V14.01,2013-02-02 13:01:00,
2013-02-02 08:16:00,15.4,8.0,30.22,SW,219,6.0,11.0,72,0.00,,,0.00,VWS V14.01,2013-02-02 13:16:00,
2013-02-02 08:31:00,15.5,8.1,30.22,WSW,258,4.0,9.0,72,0.00,,,0.00,VWS V14.01,2013-02-02 13:31:00,
2013-02-02 08:46:00,15.7,8.0,30.21,SSW,203,2.0,8.0,71,0.00,,,0.00,VWS V14.01,2013-02-02 13:46:00,
2013-02-02 09:01:00,15.9,8.2,30.21,SSW,194,3.0,9.0,71,0.00,,,0.00,VWS V14.01,2013-02-02 14:01:00,
2013-02-02 09:16:00,16.1,8.7,30.20,SW,223,4.0,7.0,72,0.00,,,0.00,VWS V14.01,2013-02-02 14:16:00,
2013-02-02 09:31:00,16.1,8.4,30.20,SSW,195,3.0,8.0,71,0.00,,,0.00,VWS V14.01,2013-02-02 14:31:00,
2013-02-02 09:46:00,16.3,7.9,30.19,South,191,3.0,12.0,69,0.00,,,0.00,VWS V14.01,2013-02-02 14:46:00,
2013-02-02 10:01:00,16.6,8.2,30.19,SSW,211,3.0,12.0,69,0.00,,,0.00,VWS V14.01,2013-02-02 15:01:00,
2013-02-02 10:16:00,17.1,8.7,30.19,South,191,5.0,12.0,69,0.00,,,0.00,VWS V14.01,2013-02-02 15:16:00,
2013-02-02 10:31:00,17.2,9.7,30.18,SSW,210,6.0,11.0,72,0.00,,,0.00,VWS V14.01,2013-02-02 15:31:00,
2013-02-02 10:46:00,17.0,11.3,30.18,SW,224,4.0,10.0,78,0.00,,,0.00,VWS V14.01,2013-02-02 15:46:00,
2013-02-02 11:01:00,17.1,11.4,30.18,WSW,243,7.0,12.0,78,0.00,,,0.00,VWS V14.01,2013-02-02 16:01:00,
2013-02-02 11:16:00,17.4,11.7,30.18,SSW,203,5.0,9.0,78,0.00,,,0.00,VWS V14.01,2013-02-02 16:16:00,
2013-02-02 11:31:00,17.8,11.5,30.17,SW,218,3.0,10.0,76,0.00,,,0.00,VWS V14.01,2013-02-02 16:31:00,
2013-02-02 11:46:00,18.2,11.6,30.16,SSW,205,4.0,11.0,75,0.00,,,0.00,VWS V14.01,2013-02-02 16:46:00,
2013-02-02 12:01:00,18.5,11.9,30.15,South,183,3.0,10.0,75,0.00,,,0.00,VWS V14.01,2013-02-02 17:01:00,
2013-02-02 12:16:00,18.6,12.0,30.15,SSW,194,2.0,9.0,75,0.00,,,0.00,VWS V14.01,2013-02-02 17:16:00,
2013-02-02 12:31:00,19.2,12.0,30.13,SSW,202,6.0,10.0,73,0.00,,,0.00,VWS V14.01,2013-02-02 17:31:00,
2013-02-02 12:46:00,19.7,12.1,30.12,SSW,213,3.0,12.0,72,0.00,,,0.00,VWS V14.01,2013-02-02 17:46:00,
2013-02-02 13:01:00,19.9,12.0,30.11,SSW,203,6.0,9.0,71,0.00,,,0.00,VWS V14.01,2013-02-02 18:01:00,
2013-02-02 13:16:00,20.2,12.3,30.10,SW,215,5.0,9.0,71,0.00,,,0.00,VWS V14.01,2013-02-02 18:16:00,
2013-02-02 13:31:00,20.6,12.4,30.10,SW,214,2.0,10.0,70,0.00,,,0.00,VWS V14.01,2013-02-02 18:31:00,
2013-02-02 13:46:00,20.9,12.7,30.09,South,190,5.0,8.0,70,0.00,,,0.00,VWS V14.01,2013-02-02 18:46:00,
2013-02-02 14:01:00,21.1,12.5,30.09,SW,234,3.0,12.0,69,0.00,,,0.00,VWS V14.01,2013-02-02 19:01:00,
2013-02-02 14:16:00,21.1,12.9,30.09,SW,215,5.0,9.0,70,0.00,,,0.00,VWS V14.01,2013-02-02 19:16:00,
2013-02-02 14:31:00,20.9,13.3,30.09,WSW,241,6.0,8.0,72,0.00,,,0.00,VWS V14.01,2013-02-02 19:31:00,
2013-02-02 14:46:00,20.8,13.8,30.09,SW,218,5.0,8.0,74,0.00,,,0.00,VWS V14.01,2013-02-02 19:46:00,
2013-02-02 15:01:00,20.8,13.8,30.08,SW,222,4.0,9.0,74,0.00,,,0.00,VWS V14.01,2013-02-02 20:01:00,
2013-02-02 15:16:00,21.1,14.1,30.08,South,190,2.0,8.0,74,0.00,,,0.00,VWS V14.01,2013-02-02 20:16:00,
2013-02-02 15:31:00,20.9,14.5,30.08,SSW,203,6.0,10.0,76,0.00,,,0.00,VWS V14.01,2013-02-02 20:31:00,
2013-02-02 15:46:00,20.6,15.4,30.08,South,191,2.0,7.0,80,0.00,,,0.00,VWS V14.01,2013-02-02 20:46:00,
2013-02-02 16:01:00,20.3,16.0,30.08,South,189,3.0,11.0,83,0.00,,,0.00,VWS V14.01,2013-02-02 21:01:00,
2013-02-02 16:16:00,20.4,16.1,30.08,SSW,195,3.0,8.0,83,0.00,,,0.00,VWS V14.01,2013-02-02 21:16:00,
2013-02-02 16:31:00,20.6,16.0,30.08,South,188,3.0,7.0,82,0.00,,,0.00,VWS V14.01,2013-02-02 21:31:00,
2013-02-02 16:46:00,20.7,15.5,30.08,South,185,3.0,8.0,80,0.00,,,0.00,VWS V14.01,2013-02-02 21:46:00,
2013-02-02 17:01:00,20.6,15.1,30.08,SSW,209,3.0,8.0,79,0.00,,,0.00,VWS V14.01,2013-02-02 22:01:00,
2013-02-02 17:16:00,20.5,15.0,30.08,SSW,198,1.0,8.0,79,0.00,,,0.00,VWS V14.01,2013-02-02 22:16:00,
2013-02-02 17:31:00,20.4,14.9,30.08,SSW,207,0.0,6.0,79,0.00,,,0.00,VWS V14.01,2013-02-02 22:31:00,
2013-02-02 17:46:00,20.3,15.1,30.09,SSW,192,1.0,5.0,80,0.00,,,0.00,VWS V14.01,2013-02-02 22:46:00,
2013-02-02 18:01:00,20.1,15.5,30.08,SSW,199,0.0,6.0,82,0.00,,,0.00,VWS V14.01,2013-02-02 23:01:00,
2013-02-02 18:16:00,20.0,15.4,30.08,SW,216,2.0,6.0,82,0.00,,,0.00,VWS V14.01,2013-02-02 23:16:00,
2013-02-02 18:31:00,19.8,15.8,30.09,South,182,1.0,5.0,84,0.00,,,0.00,VWS V14.01,2013-02-02 23:31:00,
2013-02-02 18:46:00,19.7,15.9,30.08,SSW,200,2.0,4.0,85,0.00,,,0.00,VWS V14.01,2013-02-02 23:46:00,
2013-02-02 19:01:00,19.7,15.9,30.08,SSW,205,3.0,4.0,85,0.00,,,0.00,VWS V14.01,2013-02-03 00:01:00,
2013-02-02 19:16:00,19.5,15.5,30.08,SW,223,2.0,5.0,84,0.00,,,0.00,VWS V14.01,2013-02-03 00:16:00,
2013-02-02 19:31:00,19.3,15.3,30.08,SSW,211,2.0,5.0,84,0.00,,,0.00,VWS V14.01,2013-02-03 00:31:00,
2013-02-02 19:46:00,19.2,15.2,30.09,South,187,3.0,5.0,84,0.00,,,0.00,VWS V14.01,2013-02-03 00:46:00,
2013-02-02 20:01:00,19.0,14.7,30.09,SSW,206,1.0,5.0,83,0.00,,,0.00,VWS V14.01,2013-02-03 01:01:00,
2013-02-02 20:16:00,18.5,14.2,30.08,SSW,211,0.0,4.0,83,0.00,,,0.00,VWS V14.01,2013-02-03 01:16:00,
2013-02-02 20:31:00,18.0,14.0,30.09,SSW,211,0.0,2.0,84,0.00,,,0.00,VWS V14.01,2013-02-03 01:31:00,
2013-02-02 20:46:00,17.4,13.4,30.08,SSW,211,0.0,1.0,84,0.00,,,0.00,VWS V14.01,2013-02-03 01:46:00,
2013-02-02 21:01:00,16.5,12.8,30.08,SSW,211,0.0,2.0,85,0.00,,,0.00,VWS V14.01,2013-02-03 02:01:00,
2013-02-02 21:16:00,15.7,12.0,30.08,SSW,211,0.0,0.0,85,0.00,,,0.00,VWS V14.01,2013-02-03 02:16:00,
2013-02-02 21:31:00,15.0,11.6,30.08,SSW,211,0.0,0.0,86,0.00,,,0.00,VWS V14.01,2013-02-03 02:31:00,
2013-02-02 21:46:00,14.4,11.2,30.08,SSW,211,0.0,1.0,87,0.00,,,0.00,VWS V14.01,2013-02-03 02:46:00,
2013-02-02 22:01:00,15.3,12.4,30.08,SSW,211,0.0,2.0,88,0.00,,,0.00,VWS V14.01,2013-02-03 03:01:00,
2013-02-02 22:16:00,14.6,11.4,30.08,SSW,211,0.0,0.0,87,0.00,,,0.00,VWS V14.01,2013-02-03 03:16:00,
2013-02-02 22:31:00,14.3,11.7,30.08,SSW,211,0.0,1.0,89,0.00,,,0.00,VWS V14.01,2013-02-03 03:31:00,
2013-02-02 22:46:00,14.9,12.2,30.07,SSW,211,0.0,1.0,89,0.00,,,0.00,VWS V14.01,2013-02-03 03:46:00,
2013-02-02 23:01:00,15.3,12.6,30.07,SSW,211,0.0,0.0,89,0.00,,,0.00,VWS V14.01,2013-02-03 04:01:00,
2013-02-02 23:16:00,14.9,12.2,30.07,SSW,211,0.0,0.0,89,0.00,,,0.00,VWS V14.01,2013-02-03 04:16:00,
2013-02-02 23:31:00,14.8,12.1,30.07,SSW,211,0.0,0.0,89,0.00,,,0.00,VWS V14.01,2013-02-03 04:31:00,
2013-02-02 23:46:00,14.4,11.5,30.07,SSW,211,0.0,0.0,88,0.00,,,0.00,VWS V14.01,2013-02-03 04:46:00,